AFR66JB LFRS-LFPG

Flight info

Callsign AFR66JB
Flight time 0h 41m
Altitude 28000
Route ANG UN741 KEPER
Aircraft A320/M-SDE2E3FGIJ1RWY/HB1

Departure

Time 2026-05-08 21:50
Airport Nantes Atlantique Airport (LFRS)

Arrival

Time 2026-05-08 22:31
Airport Charles de Gaulle International Airport (LFPG)
Time Latitude Longitude Altitude Speed Heading
2026-05-08 21:19 47.15717 -1.60263 90 ft 0 kts 44°
2026-05-08 21:40 47.15714 -1.60266 90 ft 3 kts 44°
2026-05-08 21:40 47.15695 -1.60294 90 ft 4 kts 46°
2026-05-08 21:41 47.15670 -1.60354 90 ft 4 kts 118°
2026-05-08 21:41 47.15683 -1.60374 90 ft 1 kts 138°
2026-05-08 21:41 47.15683 -1.60375 90 ft 0 kts 138°
2026-05-08 21:43 47.15668 -1.60354 92 ft 6 kts 137°
2026-05-08 21:43 47.15621 -1.60292 90 ft 12 kts 140°
2026-05-08 21:43 47.15545 -1.60300 90 ft 11 kts 217°
2026-05-08 21:44 47.15522 -1.60385 92 ft 8 kts 275°
2026-05-08 21:44 47.15553 -1.60470 92 ft 12 kts 306°
2026-05-08 21:44 47.15582 -1.60594 92 ft 14 kts 240°
2026-05-08 21:44 47.15505 -1.60661 90 ft 12 kts 206°
2026-05-08 21:45 47.15429 -1.60719 90 ft 12 kts 208°
2026-05-08 21:45 47.15364 -1.60770 94 ft 9 kts 207°
2026-05-08 21:45 47.15297 -1.60821 93 ft 13 kts 207°
2026-05-08 21:45 47.15203 -1.60892 93 ft 17 kts 208°
2026-05-08 21:46 47.15107 -1.60969 93 ft 15 kts 207°
2026-05-08 21:46 47.15015 -1.61036 91 ft 15 kts 207°
2026-05-08 21:46 47.14931 -1.61100 91 ft 12 kts 207°
2026-05-08 21:46 47.14886 -1.61134 90 ft 11 kts 207°
2026-05-08 21:47 47.14794 -1.61204 90 ft 14 kts 207°
2026-05-08 21:47 47.14689 -1.61283 92 ft 20 kts 207°
2026-05-08 21:47 47.14542 -1.61396 90 ft 27 kts 207°
2026-05-08 21:47 47.14390 -1.61511 90 ft 23 kts 208°
2026-05-08 21:48 47.14254 -1.61616 87 ft 23 kts 206°
2026-05-08 21:48 47.14171 -1.61699 84 ft 21 kts 239°
2026-05-08 21:48 47.14147 -1.61875 89 ft 14 kts 288°
2026-05-08 21:48 47.14200 -1.61922 85 ft 9 kts 25°
2026-05-08 21:49 47.14206 -1.61917 84 ft 0 kts 27°
2026-05-08 21:49 47.14301 -1.61845 86 ft 50 kts 28°
2026-05-08 21:50 47.14814 -1.61455 91 ft 114 kts 27°
2026-05-08 21:50 47.15690 -1.60793 103 ft 165 kts 28°
2026-05-08 21:50 47.16677 -1.59915 662 ft 168 kts 49°
2026-05-08 21:50 47.17007 -1.58317 1362 ft 171 kts 99°
2026-05-08 21:51 47.16425 -1.56829 2091 ft 172 kts 127°
2026-05-08 21:51 47.15846 -1.55340 2789 ft 167 kts 103°
2026-05-08 21:51 47.15643 -1.53667 3456 ft 169 kts 96°
2026-05-08 21:51 47.15508 -1.51849 3778 ft 193 kts 95°
2026-05-08 21:52 47.15367 -1.49751 4108 ft 219 kts 96°
2026-05-08 21:52 47.15203 -1.47410 4527 ft 242 kts 97°
2026-05-08 21:52 47.15014 -1.44873 5183 ft 255 kts 96°
2026-05-08 21:52 47.14813 -1.42249 5974 ft 262 kts 97°
2026-05-08 21:53 47.14598 -1.39569 6792 ft 266 kts 97°
2026-05-08 21:53 47.14378 -1.36838 7570 ft 271 kts 98°
2026-05-08 21:53 47.14271 -1.34051 8306 ft 278 kts 86°
2026-05-08 21:53 47.14714 -1.31266 9091 ft 286 kts 69°
2026-05-08 21:54 47.15764 -1.28747 9890 ft 293 kts 50°
2026-05-08 21:54 47.17319 -1.26729 10505 ft 307 kts 39°
2026-05-08 21:54 47.19072 -1.24735 10786 ft 330 kts 39°
2026-05-08 21:54 47.20927 -1.22643 11339 ft 341 kts 39°
2026-05-08 21:55 47.22824 -1.20508 12044 ft 346 kts 39°
2026-05-08 21:55 47.24746 -1.18339 12767 ft 351 kts 39°
2026-05-08 21:55 47.26691 -1.16135 13470 ft 355 kts 39°
2026-05-08 21:56 47.30642 -1.11635 14813 ft 363 kts 39°
2026-05-08 21:56 47.32652 -1.09338 15464 ft 367 kts 39°
2026-05-08 21:56 47.34683 -1.07015 16085 ft 371 kts 39°
2026-05-08 21:56 47.36734 -1.04667 16690 ft 376 kts 39°
2026-05-08 21:57 47.38808 -1.02289 17288 ft 380 kts 39°
2026-05-08 21:57 47.40905 -0.99883 17887 ft 383 kts 39°
2026-05-08 21:57 47.43021 -0.97457 18480 ft 387 kts 39°
2026-05-08 21:57 47.45154 -0.95012 19071 ft 390 kts 39°
2026-05-08 21:58 47.47304 -0.92547 19652 ft 393 kts 40°
2026-05-08 21:58 47.49470 -0.90058 20235 ft 396 kts 40°
2026-05-08 21:58 47.51576 -0.87435 20799 ft 397 kts 47°
2026-05-08 21:58 47.53353 -0.84323 21350 ft 396 kts 58°
2026-05-08 21:59 47.54724 -0.80795 21899 ft 395 kts 69°
2026-05-08 21:59 47.55705 -0.77000 22444 ft 396 kts 73°
2026-05-08 21:59 47.56636 -0.73153 22985 ft 398 kts 73°
2026-05-08 21:59 47.57579 -0.69291 23496 ft 400 kts 73°
2026-05-08 22:00 47.58531 -0.65401 23996 ft 402 kts 73°
2026-05-08 22:00 47.59488 -0.61499 24476 ft 405 kts 73°
2026-05-08 22:00 47.60452 -0.57566 24928 ft 407 kts 73°
2026-05-08 22:00 47.61414 -0.53613 25353 ft 410 kts 73°
2026-05-08 22:01 47.62377 -0.49625 25773 ft 412 kts 73°
2026-05-08 22:01 47.63342 -0.45609 25983 ft 413 kts 74°
2026-05-08 22:01 47.64293 -0.41642 26029 ft 401 kts 74°
2026-05-08 22:01 47.65219 -0.37792 26033 ft 394 kts 74°
2026-05-08 22:02 47.66134 -0.33987 26036 ft 391 kts 74°
2026-05-08 22:02 47.67043 -0.30186 26033 ft 390 kts 74°
2026-05-08 22:02 47.67949 -0.26390 26035 ft 390 kts 74°
2026-05-08 22:02 47.68854 -0.22592 26036 ft 390 kts 74°
2026-05-08 22:03 47.69756 -0.18795 26034 ft 390 kts 74°
2026-05-08 22:03 47.70658 -0.14997 26033 ft 390 kts 74°
2026-05-08 22:03 47.71546 -0.11252 26039 ft 390 kts 74°
2026-05-08 22:03 47.72445 -0.07450 26036 ft 390 kts 74°
2026-05-08 22:04 47.73341 -0.03652 26040 ft 390 kts 74°
2026-05-08 22:04 47.74235 0.00148 26040 ft 390 kts 74°
2026-05-08 22:04 47.75131 0.03953 26036 ft 390 kts 73°
2026-05-08 22:04 47.76026 0.07761 26024 ft 391 kts 72°
2026-05-08 22:05 47.76919 0.11572 25848 ft 387 kts 72°
2026-05-08 22:05 47.77794 0.15310 25527 ft 381 kts 72°
2026-05-08 22:05 47.78661 0.19010 25078 ft 378 kts 72°
2026-05-08 22:05 47.79548 0.22673 24613 ft 375 kts 68°
2026-05-08 22:06 47.80790 0.26068 24153 ft 374 kts 56°
2026-05-08 22:06 47.82462 0.29006 23802 ft 371 kts 44°
2026-05-08 22:06 47.84477 0.31404 23520 ft 371 kts 35°
2026-05-08 22:06 47.86595 0.33603 23239 ft 371 kts 36°
2026-05-08 22:07 47.88708 0.35811 22947 ft 370 kts 36°
2026-05-08 22:07 47.90810 0.38018 22663 ft 369 kts 36°
2026-05-08 22:07 47.92905 0.40218 22365 ft 368 kts 36°
2026-05-08 22:07 47.94998 0.42411 22078 ft 367 kts 35°
2026-05-08 22:08 47.97083 0.44598 21788 ft 366 kts 36°
2026-05-08 22:08 47.99161 0.46782 21505 ft 365 kts 36°
2026-05-08 22:08 48.01233 0.48964 21224 ft 364 kts 35°
2026-05-08 22:08 48.03296 0.51140 20943 ft 362 kts 35°
2026-05-08 22:09 48.05355 0.53305 20663 ft 361 kts 35°
2026-05-08 22:09 48.07401 0.55462 20372 ft 359 kts 35°
2026-05-08 22:09 48.09441 0.57616 20093 ft 359 kts 35°
2026-05-08 22:09 48.11476 0.59768 19818 ft 358 kts 36°
2026-05-08 22:10 48.13327 0.62237 19559 ft 356 kts 47°
2026-05-08 22:10 48.15019 0.64951 19306 ft 356 kts 47°
2026-05-08 22:10 48.16704 0.67663 19054 ft 355 kts 47°
2026-05-08 22:10 48.18379 0.70365 18806 ft 354 kts 47°
2026-05-08 22:11 48.20051 0.73064 18558 ft 353 kts 47°
2026-05-08 22:11 48.21719 0.75763 18307 ft 352 kts 47°
2026-05-08 22:11 48.23380 0.78456 18057 ft 351 kts 47°
2026-05-08 22:11 48.25035 0.81142 17807 ft 350 kts 47°
2026-05-08 22:12 48.26686 0.83829 17555 ft 349 kts 47°
2026-05-08 22:12 48.28328 0.86504 17305 ft 347 kts 47°
2026-05-08 22:12 48.29941 0.89128 17058 ft 346 kts 47°
2026-05-08 22:12 48.31568 0.91778 16807 ft 345 kts 47°
2026-05-08 22:13 48.33192 0.94419 16557 ft 343 kts 47°
2026-05-08 22:13 48.34806 0.97054 16306 ft 341 kts 47°
2026-05-08 22:13 48.36409 0.99677 16055 ft 340 kts 47°
2026-05-08 22:13 48.38004 1.02286 15801 ft 338 kts 47°
2026-05-08 22:14 48.39592 1.04887 15554 ft 337 kts 47°
2026-05-08 22:14 48.41171 1.07474 15304 ft 335 kts 47°
2026-05-08 22:14 48.42746 1.10056 15057 ft 334 kts 47°
2026-05-08 22:14 48.44309 1.12624 14804 ft 332 kts 47°
2026-05-08 22:15 48.45865 1.15185 14555 ft 331 kts 47°
2026-05-08 22:15 48.47415 1.17734 14304 ft 329 kts 47°
2026-05-08 22:15 48.48956 1.20266 14054 ft 328 kts 47°
2026-05-08 22:15 48.50501 1.22811 13794 ft 326 kts 47°
2026-05-08 22:16 48.52029 1.25328 13550 ft 325 kts 47°
2026-05-08 22:16 48.53546 1.27842 13296 ft 324 kts 47°
2026-05-08 22:16 48.55060 1.30360 13105 ft 323 kts 47°
2026-05-08 22:16 48.56565 1.32860 13067 ft 322 kts 47°
2026-05-08 22:17 48.58070 1.35358 13072 ft 322 kts 47°
2026-05-08 22:17 48.59580 1.37860 12985 ft 323 kts 47°
2026-05-08 22:17 48.61086 1.40349 12726 ft 320 kts 47°
2026-05-08 22:17 48.62584 1.42836 12480 ft 319 kts 47°
2026-05-08 22:18 48.64074 1.45311 12193 ft 317 kts 47°
2026-05-08 22:18 48.65551 1.47766 11846 ft 314 kts 47°
2026-05-08 22:18 48.67016 1.50207 11472 ft 312 kts 47°
2026-05-08 22:18 48.68471 1.52634 11120 ft 311 kts 47°
2026-05-08 22:19 48.69916 1.55046 10749 ft 309 kts 48°
2026-05-08 22:19 48.71355 1.57450 10385 ft 307 kts 48°
2026-05-08 22:19 48.72781 1.59836 10038 ft 303 kts 48°
2026-05-08 22:19 48.74190 1.62159 9806 ft 296 kts 44°
2026-05-08 22:20 48.75787 1.64100 9467 ft 294 kts 34°
2026-05-08 22:20 48.77318 1.66101 9101 ft 290 kts 52°
2026-05-08 22:20 48.78494 1.68572 8726 ft 288 kts 56°
2026-05-08 22:20 48.79615 1.71091 8481 ft 288 kts 57°
2026-05-08 22:21 48.80726 1.73607 8257 ft 286 kts 57°
2026-05-08 22:21 48.81830 1.76114 8027 ft 285 kts 57°
2026-05-08 22:21 48.82926 1.78605 7803 ft 283 kts 57°
2026-05-08 22:21 48.84022 1.81089 7575 ft 282 kts 57°
2026-05-08 22:22 48.85109 1.83555 7351 ft 281 kts 57°
2026-05-08 22:22 48.86191 1.86010 7124 ft 279 kts 57°
2026-05-08 22:22 48.87268 1.88451 6929 ft 277 kts 57°
2026-05-08 22:22 48.88335 1.90873 6761 ft 273 kts 57°
2026-05-08 22:23 48.89373 1.93226 6607 ft 262 kts 57°
2026-05-08 22:23 48.90364 1.95472 6450 ft 251 kts 57°
2026-05-08 22:23 48.91313 1.97629 6303 ft 240 kts 57°
2026-05-08 22:23 48.92224 1.99695 6152 ft 231 kts 57°
2026-05-08 22:24 48.93111 2.01706 5999 ft 228 kts 57°
2026-05-08 22:24 48.93995 2.03709 5869 ft 228 kts 57°
2026-05-08 22:24 48.94866 2.05681 5707 ft 227 kts 57°
2026-05-08 22:24 48.95744 2.07672 5560 ft 227 kts 57°
2026-05-08 22:25 48.96551 2.09712 5396 ft 224 kts 71°
2026-05-08 22:25 48.96815 2.12025 5263 ft 222 kts 85°
2026-05-08 22:25 48.96943 2.14367 5120 ft 222 kts 85°
2026-05-08 22:25 48.97074 2.16696 5023 ft 220 kts 85°
2026-05-08 22:26 48.97205 2.19009 4995 ft 218 kts 85°
2026-05-08 22:26 48.97335 2.21278 4819 ft 212 kts 85°
2026-05-08 22:26 48.97461 2.23501 4555 ft 210 kts 85°
2026-05-08 22:26 48.97586 2.25711 4282 ft 209 kts 85°
2026-05-08 22:27 48.97711 2.27909 3998 ft 208 kts 85°
2026-05-08 22:27 48.97833 2.30091 3732 ft 206 kts 85°
2026-05-08 22:27 48.97955 2.32255 3461 ft 204 kts 85°
2026-05-08 22:27 48.98075 2.34403 3189 ft 203 kts 85°
2026-05-08 22:28 48.98194 2.36537 2921 ft 202 kts 84°
2026-05-08 22:28 48.98310 2.38642 2650 ft 195 kts 84°
2026-05-08 22:28 48.98421 2.40657 2428 ft 185 kts 84°
2026-05-08 22:28 48.98526 2.42552 2154 ft 174 kts 84°
2026-05-08 22:29 48.98623 2.44317 1933 ft 160 kts 84°
2026-05-08 22:29 48.98711 2.45921 1738 ft 146 kts 84°
2026-05-08 22:29 48.98793 2.47425 1540 ft 141 kts 84°
2026-05-08 22:29 48.98875 2.48903 1369 ft 140 kts 84°
2026-05-08 22:30 48.98955 2.50362 1185 ft 137 kts 84°
2026-05-08 22:30 48.99031 2.51793 984 ft 135 kts 84°
2026-05-08 22:30 48.99109 2.53211 783 ft 134 kts 84°
2026-05-08 22:30 48.99187 2.54633 615 ft 134 kts 83°
2026-05-08 22:31 48.99262 2.56053 477 ft 135 kts 84°
2026-05-08 22:31 48.99344 2.57461 364 ft 126 kts 84°
2026-05-08 22:31 48.99404 2.58601 355 ft 85 kts 85°
2026-05-08 22:31 48.99441 2.59249 355 ft 46 kts 84°
2026-05-08 22:32 48.99465 2.59699 355 ft 35 kts 84°
2026-05-08 22:32 48.99537 2.59933 357 ft 24 kts 34°
2026-05-08 22:32 48.99670 2.59973 356 ft 19 kts 355°
2026-05-08 22:32 48.99807 2.59958 358 ft 20 kts 356°
2026-05-08 22:33 48.99906 2.60016 361 ft 14 kts 48°
2026-05-08 22:33 48.99941 2.60059 361 ft 8 kts 27°
2026-05-08 22:33 48.99987 2.60067 354 ft 6 kts 342°
2026-05-08 22:33 49.00013 2.60030 361 ft 4 kts 293°
2026-05-08 22:34 49.00010 2.59978 359 ft 6 kts 263°
2026-05-08 22:34 49.00005 2.59904 358 ft 8 kts 264°
2026-05-08 22:34 49.00000 2.59804 358 ft 11 kts 267°
2026-05-08 22:34 49.00003 2.59683 360 ft 13 kts 294°
2026-05-08 22:35 49.00092 2.59639 354 ft 16 kts 354°
2026-05-08 22:35 49.00214 2.59624 354 ft 19 kts 356°
2026-05-08 22:35 49.00351 2.59607 354 ft 21 kts 354°
2026-05-08 22:35 49.00502 2.59589 354 ft 23 kts 356°
2026-05-08 22:36 49.00665 2.59568 359 ft 24 kts 355°
2026-05-08 22:36 49.00831 2.59547 357 ft 23 kts 355°
2026-05-08 22:36 49.00948 2.59534 358 ft 16 kts 353°
2026-05-08 22:36 49.01000 2.59404 359 ft 17 kts 265°
2026-05-08 22:37 49.00991 2.59230 354 ft 16 kts 266°
2026-05-08 22:37 49.00978 2.59062 354 ft 16 kts 255°
2026-05-08 22:37 49.00952 2.58900 360 ft 16 kts 263°
2026-05-08 22:37 49.00941 2.58725 360 ft 17 kts 264°
2026-05-08 22:38 49.00931 2.58534 354 ft 19 kts 265°
2026-05-08 22:38 49.00921 2.58329 361 ft 20 kts 266°
2026-05-08 22:38 49.00908 2.58109 359 ft 21 kts 265°
2026-05-08 22:38 49.00895 2.57877 357 ft 22 kts 265°
2026-05-08 22:39 49.00885 2.57671 354 ft 15 kts 265°
2026-05-08 22:39 49.00876 2.57503 354 ft 17 kts 266°
2026-05-08 22:39 49.00866 2.57337 354 ft 13 kts 263°
2026-05-08 22:39 49.00850 2.57223 361 ft 9 kts 229°
2026-05-08 22:40 49.00784 2.57217 358 ft 10 kts 172°
2026-05-08 22:40 49.00717 2.57227 357 ft 9 kts 176°
2026-05-08 22:40 49.00670 2.57232 358 ft 6 kts 174°
2026-05-08 22:40 49.00658 2.57265 354 ft 3 kts 109°
2026-05-08 22:41 49.00654 2.57288 356 ft 2 kts 102°
2026-05-08 22:41 49.00653 2.57302 354 ft 1 kts 100°
2026-05-08 22:41 49.00652 2.57305 361 ft 0 kts 99°
2026-05-08 22:41 49.00652 2.57312 354 ft 1 kts 100°
2026-05-08 22:42 49.00652 2.57313 354 ft 0 kts 99°